Flag for Canada Weather past 2 weeks in Québec, Quebec, Canada

Now
63 °F

Passing clouds.


Feels Like: 63 °F
Forecast: 58 / 80 °F
Wind: 9 mph from North

Location: Quebec Weather Station

Current Time: Aug 2, 2014 at 12:52:29 AM

Latest Report: Aug 2, 2014 at 12:00 AM


Visibility: 15 mi

Pressure: 30.15 "Hg

Humidity: 88%

Dew point: 59 °F

Location of QuébecLocation

Historic Weather in Québec — Graph

°F

Québec temperature yesterday

Maximum temperature yesterday: 77 °F (at 4:00 PM)
Minimum temperature yesterday: 54 °F (at 3:00 AM)
Average temperature yesterday: 66 °F

Past Weeks' High & Low Weather Summary

 TemperatureHumidityPressure
High84 °F (Jul 21, 3:00 PM)100% (Jul 19, 2:00 AM)30.27 "Hg (Jul 19, 2:00 AM)
Low50 °F (Jul 30, 5:00 AM)38% (Jul 24, 4:00 PM)29.52 "Hg (Jul 29, 2:00 AM)
Average66 °F77%29.93 "Hg
* Reported Jul 17 11:00 PM — Aug 1 11:00 PM, Québec, Weather by CustomWeather, © 2014

Note: Actual official high and low records may vary slightly from our data, if they occured in-between our weather recording intervals... More about our weather records

Advertising

Québec weather history for previous 24 hours

 ConditionsComfort  
Time TempWeatherWind HumidityBarometerVisibility
11:00 PM
Aug 1
64 °FPassing clouds.5 mph83%30.15 "Hg15 mi
10:00 PM66 °FPassing clouds.3 mph83%30.14 "Hg15 mi
9:00 PM66 °FPassing clouds.5 mph83%30.14 "Hg15 mi
8:00 PM70 °FPassing clouds.5 mph73%30.12 "Hg20 mi
7:00 PM75 °FPassing clouds.5 mph61%30.10 "Hg20 mi
6:00 PM77 °FPassing clouds.7 mph57%30.11 "Hg20 mi
5:00 PM77 °FPassing clouds.7 mph57%30.11 "Hg20 mi
4:00 PM77 °FBroken clouds.6 mph57%30.12 "Hg20 mi
3:00 PM73 °FPartly sunny.6 mph65%30.14 "Hg20 mi
2:00 PM73 °FPartly sunny.10 mph61%30.14 "Hg20 mi
1:00 PM75 °FPartly sunny.13 mph65%30.14 "Hg20 mi
12:58 PM75 °FPartly sunny.10 mph65%30.14 "Hg20 mi
12:00 PM73 °FPartly sunny.9 mph65%30.15 "Hg20 mi
11:00 AM72 °FScattered clouds.7 mph73%30.16 "Hg20 mi
10:00 AM68 °FScattered clouds.6 mph78%30.16 "Hg20 mi
9:00 AM64 °FScattered clouds.7 mph83%30.16 "Hg20 mi
8:00 AM61 °FPassing clouds.No wind94%30.16 "Hg20 mi
7:00 AM57 °FFog.No wind100%30.14 "Hg20 mi
6:00 AM54 °FFog.No wind94%30.13 "Hg15 mi
5:00 AM55 °FFog.No wind94%30.11 "Hg15 mi
4:00 AM55 °FFog.2 mph100%30.10 "Hg15 mi
3:00 AM54 °FPassing clouds.No wind100%30.10 "Hg15 mi
2:00 AM55 °FPassing clouds.No wind100%30.10 "Hg15 mi
1:00 AM57 °FPassing clouds.No wind100%30.10 "Hg15 mi
12:00 AM57 °FPassing clouds.2 mph100%30.09 "Hg15 mi
Weather by CustomWeather, © 2014

See weather overviewHow to use our weather pages